Regional Weather Roundup
Issued by NWS Green Bay, WI

Home | Current Version | Previous Version | Text Only | Print | Product List | Glossary On
Versions: 1 2 3 4 5 6 7 8 9 10 11 12 13 14 15 16 17 18 19 20 21 22 23 24 25 26 27 28 29 30 31 32 33 34 35 36 37 38 39 40 41 42 43 44 45 46 47 48 49 50
000
ASUS43 KGRB 121500
RWRGRB

NORTH-CENTRAL AND NORTHEAST WISCONSIN REGIONAL WEATHER ROUNDUP
NATIONAL WEATHER SERVICE GREEN BAY WI
900 AM CST FRI FEB 12 2016

WIZ005-009-010>012-018-019-121600-
NORTH CENTRAL WISCONSIN

CITY           SKY/WX    TMP DP  RH WIND       PRES   REMARKS
IRONWOOD       CLOUDY     3   0  85 NW20G25   30.11R VSB 3/4 WCI -18
MANITOWISH WTR NOT AVBL
ARBOR VITAE    NOT AVBL
EAGLE RIVER    NOT AVBL
LAND O LAKES   NOT AVBL
RHINELANDER    CLOUDY     5  -4  66 NW15G25   30.05R WCI -13
PHILLIPS       NOT AVBL
ANTIGO         NOT AVBL
TOMAHAWK       NOT AVBL
MERRILL        NOT AVBL
$$

WIZ013-073-121600-
NORTHEAST WISCONSIN

CITY           SKY/WX    TMP DP  RH WIND       PRES   REMARKS
IRON MOUNTAIN  SUNNY     11  -1  58 NW22G29   29.98S WCI  -8
MARINETTE      SUNNY     12   0  57 NW12G18   30.05S WCI  -2
$$

WIZ017-030-035>037-045-121600-
CENTRAL WISCONSIN

CITY           SKY/WX    TMP DP  RH WIND       PRES   REMARKS
MEDFORD        NOT AVBL
WAUSAU         SUNNY      8  -3  61 NW17G26   30.11R WCI -10
MOSINEE        NOT AVBL
MARSHFIELD     SUNNY      8  -4  58 NW21      30.14R WCI -12
WISC RAPIDS    MOSUNNY   11  -3  53 NW24G31   30.17R WCI  -9
STEVENS POINT  NOT AVBL
WAUPACA        NOT AVBL
SHAWANO        MOSUNNY   14  -1  52 NW13G20   30.11S WCI   0
CLINTONVILLE   NOT AVBL
WAUTOMA        NOT AVBL
$$

WIZ038-039-048-051-121600-
FOX VALLEY

CITY           SKY/WX    TMP DP  RH WIND       PRES   REMARKS
NWS GREEN BAY  SUNNY     13   2  61 NW14      30.10S WCI  -2
APPLETON       PTSUNNY   12   1  62 W13       30.09S WCI  -3
OSHKOSH        MOSUNNY   14   3  61 NW13      30.11S WCI   0
FOND DU LAC    CLOUDY    15   5  64 NW15      30.12S WCI   0
$$

WIZ022-050-052-121600-
EAST CENTRAL WISCONSIN

CITY           SKY/WX    TMP DP  RH WIND       PRES   REMARKS
EPHRAIM        PTSUNNY   12   1  60 NW17G23   30.02S WCI  -5
STURGEON BAY   SUNNY     12   0  57 W16G24    30.07S WCI  -4
MANITOWOC      NOT AVBL
SHEBOYGAN      PTSUNNY   14   5  67 NW13G22   30.10S WCI   0
$$

LMZ563-521-522-541>543-121600-
LAKESHORE

STATION/POSITION TIME  TEMP    WIND        PRES    VSBY  WAVE
                       AIR SEA DIR/SP/G                  HT/PER
                 (UTC) (F)     (DEG/KT/KT) (MB)    (MI)  (FT/S)
SHEBOYGAN LKSHOR 1400   15     290/ 11/ 14 1021.0R
KEWAUNEE LKSHORE 1400   13     290/  9/ 15 1017.7R
ALGOMA MARINA    1411          300/  7/ 16   N/A
CHAMBERS ISLAND  1400   13     240/  8/ 16 1017.6R
MENOMINEE LKSHOR 1400   12     260/  8     1016.9R
$$



USA.gov is the U.S. government's official web portal to all federal, state and local government web resources and services.